Regional Weather Roundup
Issued by NWS

Home | Current Version | Previous Version | Text Only | Print | Product List | Glossary Off
Versions: 1 2 3 4 5 6 7 8 9 10 11 12 13 14 15 16 17 18 19 20 21 22 23 24 25 26 27 28 29 30 31 32 33 34 35 36 37 38 39 40 41 42 43 44 45 46 47 48 49 50

000
ASUS45 KTFX 251510
RWRMT
MONTANA REGIONAL WEATHER ROUNDUP
NATIONAL WEATHER SERVICE GREAT FALLS MT
900 AM MDT WED MAY 25 2016

NOTE: "FAIR" INDICATES FEW OR NO CLOUDS BELOW 12000 FEET WITH NO
SIGNIFICANT WEATHER AND/OR OBSTRUCTIONS TO VISIBILITY.

MTZ001>007-043-251600-
WEST OF THE DIVIDE

CITY           SKY/WX    TMP DP  RH WIND       PRES   REMARKS
KALISPELL      CLOUDY    48  45  89 CALM      29.97R
MISSOULA       CLOUDY    43  41  93 CALM      30.04R
BUTTE          SUNNY     41  36  82 CALM      30.02R
MULLAN PASS    FOG       40  40 100 VRB6      30.03R VSB<1/4
ANACONDA         N/A     48  39  71 CALM      30.00S
DEER LODGE       N/A     45  39  81 CALM      30.02S
EUREKA           N/A     54  43  66 S6        29.96S
HAMILTON         N/A     48  41  76 S8        30.01S
LIBBY            N/A     50  43  76 NE3       29.98F
PLAINS           N/A     47  44  89 CALM      30.01S
$$

MTZ008-052>055-251600-
SOUTHWEST MONTANA

CITY           SKY/WX    TMP DP  RH WIND       PRES   REMARKS
BOZEMAN        PTSUNNY   50  43  77 VRB3      29.98R
DILLON         PTSUNNY   45  38  76 NW5       29.98S
ENNIS          CLOUDY    48  41  76 S6        30.04S
$$

MTZ009-010-012-014-046-048-049-054-251600-
EAST SLOPES AND CENTRAL MONTANA

CITY           SKY/WX    TMP DP  RH WIND       PRES   REMARKS
CUT BANK       CLOUDY    51  43  74 N7        29.88S
GREAT FALLS    SUNNY     53  41  63 SW16      29.90S
MALMSTROM AFB  SUNNY     54  42  64 SW16      29.90S
HELENA         SUNNY     50  42  74 CALM      29.95S
CHOTEAU          N/A     57  43  58 SE3       29.89S
$$

MTZ011-013-016-021-045-047-050-051-251600-
NORTH CENTRAL MONTANA

CITY           SKY/WX    TMP DP  RH WIND       PRES   REMARKS
HAVRE            N/A    N/A N/A N/A MISG      29.88S
LEWISTOWN      SUNNY     53  40  61 CALM      29.91S
N BAR RANCH      N/A     52  37  58 CALM      29.93S
CHINOOK          N/A     54  46  76 CALM      29.88S
$$

MTZ017>020-022>027-061-062-251600-
NORTHEAST MONTANA

CITY           SKY/WX    TMP DP  RH WIND       PRES   REMARKS
GLASGOW        CLOUDY    51  45  79 E3        29.88S
JORDAN           N/A     53  45  74 W3        29.88F
SIDNEY         LGT RAIN  51  49  92 NW17G25   29.85F
WOLF POINT     CLOUDY    53  48  83 CALM      29.89S
PLENTYWOOD       N/A     50  50 100 W8        29.90R
POPLAR           N/A     52  48  87 N12       29.88F
SCOBEY           N/A     45  36  70 W1        29.89S
$$

MTZ028>42-056>058-251600-
SOUTHCENTRAL AND SOUTHEAST MONTANA

CITY           SKY/WX    TMP DP  RH WIND       PRES   REMARKS
BAKER          CLOUDY    50  46  86 NW17G23   29.87R
BILLINGS       MOSUNNY   54  44  69 CALM      29.92S
LIVINGSTON     CLOUDY    50  40  68 W9        29.94F
MILES CITY     CLOUDY    52  49  89 S3        29.88S
EKALAKA          N/A     48  45  90 NW9       29.87S
FORSYTH          N/A     52  46  82 SW8       29.88S
$$

REGIONAL REPORTS...DAKOTAS

CITY           SKY/WX    TMP DP  RH WIND       PRES   REMARKS
WILLISTON      RAIN      52  49  89 NW10      29.83S FOG
MINOT          LGT RAIN  58  55  90 NE8       29.83R
DICKINSON      CLOUDY    57  51  80 SW10      29.80F
BEACH          CLOUDY    48  48 100 NW20      29.87S
CROSBY         LGT RAIN  50  50 100 N6        29.88F
WATFORD CITY   CLOUDY    55  54  94 NE5       29.81F
BISMARCK       LGT RAIN  61  57  87 CALM      29.80F
GRAND FORKS    CLOUDY    67  55  65 E12       29.80F
FARGO          LGT RAIN  68  56  65 SE13      29.76F
BUFFALO SD       N/A     57  50  77 W17       29.77F
RAPID CITY     SUNNY     60  51  72 S7        29.83F
$$

REGIONAL REPORTS...WYOMING/IDAHO/WASHINGTON

CITY           SKY/WX    TMP DP  RH WIND       PRES   REMARKS
GILLETTE       CLOUDY    49  45  86 NW7       29.92S
SHERIDAN       CLOUDY    52  45  77 E5        29.92S
BUFFALO WY     LGT RAIN  49  42  77 SW3       29.95S
CODY           CLOUDY    48  45  87 NE6       29.94S
YELLOWSTONE LA   N/A     33  32  96 CALM      30.04S
IDAHO FALLS    CLOUDY    48  44  86 N3        30.02S
SALMON         CLOUDY    48  37  66 CALM      30.01R
BOISE          SUNNY     55  42  61 NW5       30.00R
SPOKANE        PTSUNNY   51  46  83 S8        30.00R
$$

REGIONAL REPORTS...ALBERTA

CITY           SKY/WX    TMP DP  RH WIND       PRES   REMARKS
EDMONTON       SUNNY     57  45  62 S10       29.85R
LETHBRIDGE     MOSUNNY   52  43  71 W6        29.87R
MEDICINE HAT   SUNNY     52  43  71 N6        29.88S
CARDSTON         N/A     55  45  67 NW2         N/A
MILK RIVER       N/A     54  45  71 NW7         N/A
$$

REGIONAL REPORTS...SASKATCHEWAN

CITY           SKY/WX    TMP DP  RH WIND       PRES   REMARKS
SWIFT CURRENT  CLOUDY    46  46 100 SW5       29.88S
REGINA         CLOUDY    50  43  76 SE5       29.91R
SASKATOON      PTSUNNY   48  48 100 E8        29.92S FOG
CYPRESS HILLS    N/A     50  39  66 S1          N/A
VAL MARIE        N/A     46  45  93 E2          N/A
ROCKGLEN         N/A     50  46  87 SE6         N/A
ASSINIBOIA       N/A     55  50  82 S8          N/A
$$



USA.gov is the U.S. government's official web portal to all federal, state and local government web resources and services.